Time,TemperatureF,DewpointF,PressureIn,WindDirection,WindDirectionDegrees,WindSpeedMPH,WindSpeedGustMPH,Humidity,HourlyPrecipIn,Conditions,Clouds,dailyrainin,SoftwareType,DateUTC
2014-01-02 00:05:00,28.8,22.0,32.40,ESE,120,3.0,9.0,74,0.00,,,0.00,weatherlink.com 1.10,2014-01-02 07:05:00,
2014-01-02 00:20:00,28.8,21.0,32.40,ESE,116,3.0,8.0,73,0.00,,,0.00,weatherlink.com 1.10,2014-01-02 07:20:00,
2014-01-02 00:35:00,28.9,21.0,32.39,SE,127,7.0,8.0,73,0.00,,,0.00,weatherlink.com 1.10,2014-01-02 07:35:00,
2014-01-02 00:50:00,28.8,21.0,32.39,ESE,107,2.0,7.0,73,0.00,,,0.00,weatherlink.com 1.10,2014-01-02 07:50:00,
2014-01-02 01:05:00,29.0,21.0,32.39,ESE,109,4.0,8.0,73,0.00,,,0.00,weatherlink.com 1.10,2014-01-02 08:05:00,
2014-01-02 01:20:00,29.4,21.0,32.39,ESE,111,4.0,8.0,70,0.00,,,0.00,weatherlink.com 1.10,2014-01-02 08:20:00,
2014-01-02 01:35:00,29.2,21.0,32.38,ESE,118,8.0,10.0,71,0.00,,,0.00,weatherlink.com 1.10,2014-01-02 08:35:00,
2014-01-02 01:50:00,29.2,21.0,32.38,ESE,110,4.0,7.0,71,0.00,,,0.00,weatherlink.com 1.10,2014-01-02 08:50:00,
2014-01-02 02:05:00,29.2,21.0,32.38,East,93,5.0,10.0,71,0.00,,,0.00,weatherlink.com 1.10,2014-01-02 09:05:00,
2014-01-02 02:20:00,29.4,21.0,32.38,ESE,107,0.0,8.0,71,0.00,,,0.00,weatherlink.com 1.10,2014-01-02 09:20:00,
2014-01-02 02:35:00,29.0,21.0,32.38,East,88,6.0,9.0,72,0.00,,,0.00,weatherlink.com 1.10,2014-01-02 09:35:00,
2014-01-02 02:51:00,30.2,21.0,32.38,East,98,7.0,10.0,68,0.00,,,0.00,weatherlink.com 1.10,2014-01-02 09:51:00,
2014-01-02 03:06:00,30.4,21.0,32.39,East,101,3.0,9.0,67,0.00,,,0.00,weatherlink.com 1.10,2014-01-02 10:06:00,
2014-01-02 03:21:00,30.1,20.0,32.40,East,88,3.0,7.0,67,0.00,,,0.00,weatherlink.com 1.10,2014-01-02 10:21:00,
2014-01-02 03:36:00,30.1,20.0,32.39,ENE,78,5.0,7.0,67,0.00,,,0.00,weatherlink.com 1.10,2014-01-02 10:36:00,
2014-01-02 03:51:00,30.4,20.0,32.38,East,91,7.0,8.0,66,0.00,,,0.00,weatherlink.com 1.10,2014-01-02 10:51:00,
2014-01-02 04:06:00,30.5,20.0,32.38,East,95,7.0,9.0,66,0.00,,,0.00,weatherlink.com 1.10,2014-01-02 11:06:00,
2014-01-02 04:21:00,30.0,20.0,32.38,East,98,7.0,10.0,67,0.00,,,0.00,weatherlink.com 1.10,2014-01-02 11:21:00,
2014-01-02 04:36:00,29.9,20.0,32.37,ESE,109,5.0,9.0,67,0.00,,,0.00,weatherlink.com 1.10,2014-01-02 11:36:00,
2014-01-02 04:51:00,29.9,20.0,32.36,East,89,10.0,11.0,67,0.00,,,0.00,weatherlink.com 1.10,2014-01-02 11:51:00,
2014-01-02 05:06:00,30.1,20.0,32.34,ENE,78,9.0,13.0,67,0.00,,,0.00,weatherlink.com 1.10,2014-01-02 12:06:00,
2014-01-02 05:21:00,30.6,20.0,32.35,East,93,7.0,13.0,65,0.00,,,0.00,weatherlink.com 1.10,2014-01-02 12:21:00,
2014-01-02 05:36:00,30.1,20.0,32.34,East,85,3.0,12.0,66,0.00,,,0.00,weatherlink.com 1.10,2014-01-02 12:36:00,
2014-01-02 05:51:00,29.7,20.0,32.34,East,80,6.0,9.0,67,0.00,,,0.00,weatherlink.com 1.10,2014-01-02 12:51:00,
2014-01-02 06:06:00,29.2,20.0,32.34,ENE,78,4.0,10.0,68,0.00,,,0.00,weatherlink.com 1.10,2014-01-02 13:06:00,
2014-01-02 06:21:00,29.2,20.0,32.33,NE,36,4.0,9.0,69,0.00,,,0.00,weatherlink.com 1.10,2014-01-02 13:21:00,
2014-01-02 06:36:00,29.9,20.0,32.33,NE,34,3.0,11.0,66,0.00,,,0.00,weatherlink.com 1.10,2014-01-02 13:36:00,
2014-01-02 06:51:00,29.4,20.0,32.33,ESE,107,5.0,10.0,68,0.00,,,0.00,weatherlink.com 1.10,2014-01-02 13:51:00,
2014-01-02 07:06:00,29.3,20.0,32.32,East,85,5.0,10.0,68,0.00,,,0.00,weatherlink.com 1.10,2014-01-02 14:06:00,
2014-01-02 07:21:00,29.2,20.0,32.31,East,89,8.0,9.0,69,0.00,,,0.00,weatherlink.com 1.10,2014-01-02 14:21:00,
2014-01-02 07:36:00,30.1,20.0,32.32,North,10,4.0,8.0,66,0.00,,,0.00,weatherlink.com 1.10,2014-01-02 14:36:00,
2014-01-02 07:51:00,30.8,20.0,32.31,NE,49,6.0,6.0,64,0.00,,,0.00,weatherlink.com 1.10,2014-01-02 14:51:00,
2014-01-02 08:06:00,31.3,20.0,32.31,East,100,2.0,12.0,62,0.00,,,0.00,weatherlink.com 1.10,2014-01-02 15:06:00,
2014-01-02 08:21:00,31.4,20.0,32.31,ENE,63,2.0,5.0,62,0.00,,,0.00,weatherlink.com 1.10,2014-01-02 15:21:00,
2014-01-02 08:36:00,31.5,19.0,32.32,NE,42,3.0,5.0,60,0.00,,,0.00,weatherlink.com 1.10,2014-01-02 15:36:00,
2014-01-02 08:51:00,31.5,19.0,32.32,NE,46,2.0,5.0,60,0.00,,,0.00,weatherlink.com 1.10,2014-01-02 15:51:00,
2014-01-02 09:06:00,32.1,19.0,32.32,East,80,2.0,4.0,60,0.00,,,0.00,weatherlink.com 1.10,2014-01-02 16:06:00,
2014-01-02 09:21:00,32.3,19.0,32.32,SE,124,8.0,8.0,58,0.00,,,0.00,weatherlink.com 1.10,2014-01-02 16:21:00,
2014-01-02 09:36:00,32.8,19.0,32.32,ESE,105,8.0,10.0,58,0.00,,,0.00,weatherlink.com 1.10,2014-01-02 16:36:00,
2014-01-02 09:51:00,32.4,19.0,32.33,East,98,7.0,9.0,59,0.00,,,0.00,weatherlink.com 1.10,2014-01-02 16:51:00,
2014-01-02 10:06:00,32.1,19.0,32.32,East,84,2.0,9.0,60,0.00,,,0.00,weatherlink.com 1.10,2014-01-02 17:06:00,
2014-01-02 10:21:00,32.1,19.0,32.32,East,87,6.0,9.0,60,0.00,,,0.00,weatherlink.com 1.10,2014-01-02 17:21:00,
2014-01-02 10:36:00,31.9,20.0,32.31,ESE,103,5.0,8.0,61,0.00,,,0.00,weatherlink.com 1.10,2014-01-02 17:36:00,
2014-01-02 10:51:00,32.2,20.0,32.31,East,100,7.0,9.0,60,0.00,,,0.00,weatherlink.com 1.10,2014-01-02 17:51:00,
2014-01-02 11:06:00,32.5,19.0,32.29,ENE,75,9.0,12.0,59,0.00,,,0.00,weatherlink.com 1.10,2014-01-02 18:06:00,
2014-01-02 11:21:00,33.4,20.0,32.28,East,101,7.0,13.0,58,0.00,,,0.00,weatherlink.com 1.10,2014-01-02 18:21:00,
2014-01-02 11:36:00,33.0,20.0,32.28,ESE,117,9.0,14.0,59,0.00,,,0.00,weatherlink.com 1.10,2014-01-02 18:36:00,
2014-01-02 11:51:00,32.7,20.0,32.27,East,99,2.0,11.0,60,0.00,,,0.00,weatherlink.com 1.10,2014-01-02 18:51:00,
2014-01-02 12:06:00,32.8,19.0,32.26,ESE,112,3.0,8.0,58,0.00,,,0.00,weatherlink.com 1.10,2014-01-02 19:06:00,
2014-01-02 12:37:00,33.5,20.0,32.23,ESE,113,4.0,8.0,58,0.00,,,0.00,weatherlink.com 1.10,2014-01-02 19:37:00,
2014-01-02 12:52:00,35.2,20.0,32.22,ESE,108,4.0,11.0,55,0.00,,,0.00,weatherlink.com 1.10,2014-01-02 19:52:00,
2014-01-02 13:07:00,35.5,19.0,32.21,SE,142,5.0,14.0,52,0.00,,,0.00,weatherlink.com 1.10,2014-01-02 20:07:00,
2014-01-02 13:22:00,35.3,20.0,32.20,SE,131,1.0,11.0,54,0.00,,,0.00,weatherlink.com 1.10,2014-01-02 20:22:00,
2014-01-02 13:37:00,35.7,19.0,32.18,East,84,6.0,16.0,52,0.00,,,0.00,weatherlink.com 1.10,2014-01-02 20:37:00,
2014-01-02 13:52:00,35.9,20.0,32.18,SSW,198,1.0,9.0,53,0.00,,,0.00,weatherlink.com 1.10,2014-01-02 20:52:00,
2014-01-02 14:07:00,35.7,21.0,32.16,ESE,121,8.0,11.0,55,0.00,,,0.00,weatherlink.com 1.10,2014-01-02 21:07:00,
2014-01-02 14:22:00,35.8,20.0,32.15,SE,135,9.0,12.0,54,0.00,,,0.00,weatherlink.com 1.10,2014-01-02 21:22:00,
2014-01-02 14:37:00,35.3,21.0,32.16,East,96,0.0,8.0,56,0.00,,,0.00,weatherlink.com 1.10,2014-01-02 21:37:00,
2014-01-02 14:52:00,35.9,21.0,32.13,East,98,5.0,12.0,56,0.00,,,0.00,weatherlink.com 1.10,2014-01-02 21:52:00,
2014-01-02 15:07:00,38.4,22.0,32.13,SSE,147,9.0,12.0,52,0.00,,,0.00,weatherlink.com 1.10,2014-01-02 22:07:00,
2014-01-02 15:22:00,37.1,22.0,32.12,SE,138,4.0,14.0,54,0.00,,,0.00,weatherlink.com 1.10,2014-01-02 22:22:00,
2014-01-02 15:36:00,37.7,22.0,32.12,ESE,119,4.0,7.0,54,0.00,,,0.00,weatherlink.com 1.10,2014-01-02 22:36:00,
2014-01-02 15:52:00,37.7,22.0,32.11,South,181,2.0,11.0,53,0.00,,,0.00,weatherlink.com 1.10,2014-01-02 22:52:00,
2014-01-02 16:07:00,38.3,21.0,32.11,SE,140,5.0,7.0,51,0.00,,,0.00,weatherlink.com 1.10,2014-01-02 23:07:00,
2014-01-02 16:24:00,39.3,22.0,32.11,NE,52,0.0,4.0,50,0.00,,,0.00,weatherlink.com 1.10,2014-01-02 23:24:00,
2014-01-02 16:37:00,39.8,22.0,32.11,NW,313,0.0,3.0,50,0.00,,,0.00,weatherlink.com 1.10,2014-01-02 23:37:00,
2014-01-02 16:52:00,39.6,22.0,32.09,East,82,2.0,4.0,50,0.00,,,0.00,weatherlink.com 1.10,2014-01-02 23:52:00,
2014-01-02 17:07:00,38.9,22.0,32.10,NE,40,5.0,7.0,51,0.00,,,0.00,weatherlink.com 1.10,2014-01-03 00:07:00,
2014-01-02 17:22:00,39.1,23.0,32.09,NE,52,5.0,6.0,53,0.00,,,0.00,weatherlink.com 1.10,2014-01-03 00:22:00,
2014-01-02 17:37:00,39.3,23.0,32.09,East,90,3.0,7.0,53,0.00,,,0.00,weatherlink.com 1.10,2014-01-03 00:37:00,
2014-01-02 17:52:00,39.2,23.0,32.08,East,100,3.0,5.0,52,0.00,,,0.00,weatherlink.com 1.10,2014-01-03 00:52:00,
2014-01-02 18:07:00,39.2,23.0,32.06,East,94,3.0,7.0,52,0.00,,,0.00,weatherlink.com 1.10,2014-01-03 01:07:00,
2014-01-02 18:22:00,39.1,24.0,32.06,SE,138,3.0,5.0,54,0.00,,,0.00,weatherlink.com 1.10,2014-01-03 01:22:00,
2014-01-02 18:37:00,38.8,24.0,32.04,ESE,103,5.0,12.0,55,0.00,,,0.00,weatherlink.com 1.10,2014-01-03 01:37:00,
2014-01-02 18:52:00,38.4,25.0,32.04,ESE,120,5.0,13.0,59,0.00,,,0.00,weatherlink.com 1.10,2014-01-03 01:52:00,
2014-01-02 19:07:00,38.7,26.0,32.02,SSE,155,0.0,10.0,60,0.00,,,0.00,weatherlink.com 1.10,2014-01-03 02:07:00,
2014-01-02 19:22:00,39.1,26.0,32.01,SSE,162,12.0,17.0,59,0.00,,,0.00,weatherlink.com 1.10,2014-01-03 02:22:00,
2014-01-02 19:37:00,39.6,27.0,31.99,ESE,119,11.0,22.0,60,0.00,,,0.00,weatherlink.com 1.10,2014-01-03 02:37:00,
2014-01-02 19:53:00,38.7,27.0,31.99,ESE,113,4.0,12.0,62,0.00,,,0.00,weatherlink.com 1.10,2014-01-03 02:53:00,
2014-01-02 20:08:00,38.7,27.0,31.98,ESE,119,3.0,14.0,62,0.00,,,0.00,weatherlink.com 1.10,2014-01-03 03:08:00,
2014-01-02 20:22:00,38.4,27.0,31.98,SE,130,6.0,14.0,64,0.00,,,0.00,weatherlink.com 1.10,2014-01-03 03:22:00,
2014-01-02 20:37:00,38.6,28.0,31.95,SE,145,10.0,14.0,66,0.00,,,0.00,weatherlink.com 1.10,2014-01-03 03:37:00,
2014-01-02 20:53:00,38.9,28.0,31.94,ESE,119,8.0,14.0,65,0.00,,,0.00,weatherlink.com 1.10,2014-01-03 03:53:00,
2014-01-02 21:07:00,39.2,29.0,31.93,SSE,151,7.0,10.0,66,0.00,,,0.00,weatherlink.com 1.10,2014-01-03 04:07:00,
2014-01-02 21:23:00,39.2,29.0,31.92,SE,146,7.0,10.0,66,0.00,,,0.00,weatherlink.com 1.10,2014-01-03 04:23:00,
2014-01-02 21:38:00,39.4,29.0,31.90,SE,136,9.0,15.0,67,0.00,,,0.00,weatherlink.com 1.10,2014-01-03 04:38:00,
2014-01-02 21:53:00,40.1,31.0,31.89,East,80,5.0,15.0,69,0.00,,,0.00,weatherlink.com 1.10,2014-01-03 04:53:00,
2014-01-02 22:08:00,40.0,31.0,31.88,SE,134,8.0,11.0,70,0.00,,,0.00,weatherlink.com 1.10,2014-01-03 05:08:00,
2014-01-02 22:23:00,40.7,32.0,31.87,SE,134,8.0,11.0,70,0.00,,,0.00,weatherlink.com 1.10,2014-01-03 05:23:00,
2014-01-02 22:38:00,41.2,32.0,31.84,SE,131,7.0,14.0,70,0.00,,,0.00,weatherlink.com 1.10,2014-01-03 05:38:00,
2014-01-02 22:53:00,41.9,32.0,31.84,SE,146,6.0,14.0,68,0.00,,,0.00,weatherlink.com 1.10,2014-01-03 05:53:00,
2014-01-02 23:08:00,42.8,32.0,31.82,SSE,153,12.0,15.0,66,0.00,,,0.00,weatherlink.com 1.10,2014-01-03 06:08:00,
2014-01-02 23:23:00,43.4,32.0,31.80,SE,128,8.0,15.0,65,0.00,,,0.00,weatherlink.com 1.10,2014-01-03 06:23:00,
2014-01-02 23:38:00,43.6,32.0,31.79,SE,138,9.0,19.0,64,0.00,,,0.00,weatherlink.com 1.10,2014-01-03 06:38:00,